TimePDT,TemperatureF,Dew PointF,Humidity,Sea Level PressureIn,VisibilityMPH,Wind Direction,Wind SpeedMPH,Gust SpeedMPH,PrecipitationIn,Events,Conditions,WindDirDegrees,DateUTC
12:53 AM,55.0,48.9,80,29.92,10.0,Calm,Calm,-,N/A,,Clear,0,2013-07-20 07:53:00
1:53 AM,52.0,46.9,83,29.92,10.0,Calm,Calm,-,N/A,,Clear,0,2013-07-20 08:53:00
2:53 AM,50.0,46.0,86,29.92,10.0,Calm,Calm,-,N/A,,Clear,0,2013-07-20 09:53:00
3:53 AM,48.0,45.0,89,29.92,10.0,Calm,Calm,-,N/A,,Clear,0,2013-07-20 10:53:00
4:53 AM,48.0,44.1,86,29.91,10.0,North,-9999.0,-,N/A,,Clear,0,2013-07-20 11:53:00
5:53 AM,48.9,45.0,86,29.92,10.0,North,-9999.0,-,N/A,,Clear,0,2013-07-20 12:53:00
6:53 AM,60.1,51.1,72,29.92,10.0,Calm,Calm,-,N/A,,Clear,0,2013-07-20 13:53:00
7:53 AM,69.1,53.1,57,29.93,10.0,NE,3.5,-,N/A,,Clear,50,2013-07-20 14:53:00
8:53 AM,73.0,52.0,48,29.93,10.0,Calm,Calm,-,N/A,,Clear,0,2013-07-20 15:53:00
9:53 AM,77.0,48.9,37,29.93,10.0,SSE,6.9,-,N/A,,Clear,150,2013-07-20 16:53:00
10:53 AM,80.1,48.9,34,29.91,10.0,South,4.6,-,N/A,,Clear,170,2013-07-20 17:53:00
11:53 AM,84.9,48.9,29,29.89,10.0,South,9.2,-,N/A,,Clear,180,2013-07-20 18:53:00
12:53 PM,89.1,41.0,19,29.88,10.0,West,8.1,17.3,N/A,,Clear,270,2013-07-20 19:53:00
1:53 PM,90.0,39.9,17,29.86,10.0,SW,5.8,17.3,N/A,,Clear,230,2013-07-20 20:53:00
2:53 PM,93.0,33.1,12,29.85,10.0,SW,11.5,-,N/A,,Clear,220,2013-07-20 21:53:00
3:53 PM,93.0,28.0,10,29.83,10.0,SSW,12.7,17.3,N/A,,Clear,200,2013-07-20 22:53:00
4:53 PM,93.0,30.9,11,29.80,10.0,SW,6.9,18.4,N/A,,Clear,220,2013-07-20 23:53:00
5:53 PM,91.9,28.9,11,29.79,10.0,WNW,9.2,-,N/A,,Clear,290,2013-07-21 00:53:00
6:53 PM,90.0,28.0,11,29.77,10.0,West,9.2,-,N/A,,Clear,280,2013-07-21 01:53:00
7:53 PM,84.9,35.1,17,29.76,10.0,Calm,Calm,-,N/A,,Clear,0,2013-07-21 02:53:00
8:53 PM,66.0,45.0,47,29.78,10.0,Calm,Calm,-,N/A,,Clear,0,2013-07-21 03:53:00
9:53 PM,64.0,41.0,43,29.78,10.0,Calm,Calm,-,N/A,,Clear,0,2013-07-21 04:53:00
10:53 PM,57.9,39.9,51,29.78,10.0,NE,3.5,-,N/A,,Clear,40,2013-07-21 05:53:00
11:53 PM,55.0,39.9,57,29.77,10.0,Calm,Calm,-,N/A,,Clear,0,2013-07-21 06:53:00